Regional Weather Roundup
Issued by NWS

Home | Current Version | Previous Version | Text Only | Print | Product List | Glossary Off
Versions: 1 2 3 4 5 6 7 8 9 10 11 12 13 14 15 16 17 18 19 20 21 22 23 24 25 26 27 28 29 30 31 32 33 34 35 36 37 38 39 40 41 42 43 44 45 46 47 48 49 50

000
ASUS43 KLSX 242159
RWRMO

WEATHER SUMMARY FOR MISSOURI
NATIONAL WEATHER SERVICE SPRINGFIELD MO
400 PM CST MON NOV 24 2014

NOTE: "FAIR" INDICATES FEW OR NO CLOUDS BELOW 12,000 FEET WITH NO
       SIGNIFICANT WEATHER AND/OR OBSTRUCTIONS TO VISIBILITY.
       CURRENT SKY AND/OR WEATHER CONDITIONS ARE NOT AVAILABLE FOR
       CHILLICOTHE AND FARMINGTON.

MOZ001>031-035>038-043-044-053-054-242300-
...NORTHERN AND WESTERN MISSOURI...

CITY           SKY/WX    TMP DP  RH WIND       PRES   REMARKS
KANSAS CTY INT MOCLDY    38  25  59 W10       29.86R
KANSAS C DTWN  CLOUDY    40  24  53 W9        29.88R
LEE`S SUMMIT   CLOUDY    38  23  55 W13G21    29.88R WCI  30
ST JOSEPH      MOCLDY    37  23  56 NW10      29.88R WCI  30
CHILLICOTHE      N/A     35  23  61 W10G20    29.85R WCI  27
KIRKSVILLE     CLOUDY    31  24  75 W18G24    29.80R WCI  19

$$
MOZ066>068-077>081-088>096-101>105-242300-
...SOUTHWEST MISSOURI...

CITY           SKY/WX    TMP DP  RH WIND       PRES   REMARKS
SPRINGFIELD    PTCLDY    48  27  44 W21G28    29.86R
JOPLIN         CLEAR     49  26  41 W14G22    29.90R

$$
MOZ032>034-039>042-045>050-055>058-069>072-242300-
...CENTRAL MISSOURI...

CITY           SKY/WX    TMP DP  RH WIND       PRES   REMARKS
COLUMBIA       CLOUDY    38  27  64 W12       29.84R
JEFFERSON CITY CLOUDY    41  26  55 W12       29.86R
ROLLA          CLOUDY    41  29  62 W10       29.81R
SEDALIA        CLOUDY    39  26  59 W10       29.86R
OSAGE BEACH    MOCLDY    45  27  49 W13G23    29.84R

$$
MOZ051-052-059>065-242300-
...EAST CENTRAL MISSOURI...

CITY           SKY/WX    TMP DP  RH WIND       PRES   REMARKS
ST LOUIS INTL  MOCLDY    41  26  55 W18G25    29.82R
SPIRIT OF STL  MOCLDY    40  27  59 W12G24    29.82R
ST CHARLES     CLOUDY    39  28  64 W13       29.82R

$$
MOZ072>076-082>087-097>100-106>115-242300-
...SOUTH CENTRAL AND SOUTHEAST MISSOURI...

CITY           SKY/WX    TMP DP  RH WIND       PRES   REMARKS
CAPE GIRARDEAU PTCLDY    50  33  52 W13       29.83R
FARMINGTON     MOCLDY    46  27  46 SW9G18    29.83R
POPLAR BLUFF   CLEAR     53  26  35 W12G23    29.83R
WEST PLAINS    PTCLDY    48  27  44 W8G22     29.85R

$$


USA.gov is the U.S. government's official web portal to all federal, state and local government web resources and services.